NMB285 FYWH-EDDF

Flight info

Callsign NMB285
Flight time N/A
Altitude 34000
Route VEDRY UL685 OKSUN UM436 ANVAG UN187 VNA UR526 LIKAD/N0494F360 UY339 MESIN UG861 DLA/N0490F380 UA604 AS UR978 BOD/N0486F390 UG362 EBA/N0488F400 UG869 MAKEB UM858 DOPEL DCT DEC DCT UPDUT DCT CORSI DCT OKROK DCT AKUTI DCT TORTU DCT ERTEV DCT ABESI DCT LADOL T163 EMPAX EMPAX5C
Aircraft MD11/H-SDE1E2E3FGHIJ2J3J4J5M1RWXY/LB1D1

Departure

Time 2026-04-17 08:08
Airport Hosea Kutako International Airport (FYWH)

Arrival

Time N/A
Airport Frankfurt Main Airport (EDDF)
Time Latitude Longitude Altitude Speed Heading
2026-04-17 07:38 -22.48608 17.46231 5611 ft 0 kts 322°
2026-04-17 07:59 -22.48597 17.46222 5616 ft 10 kts 322°
2026-04-17 07:59 -22.48537 17.46195 5616 ft 3 kts 17°
2026-04-17 07:59 -22.48527 17.46205 5618 ft 5 kts 42°
2026-04-17 08:00 -22.48482 17.46285 5607 ft 18 kts 64°
2026-04-17 08:00 -22.48421 17.46423 5611 ft 25 kts 65°
2026-04-17 08:00 -22.48344 17.46595 5605 ft 25 kts 63°
2026-04-17 08:00 -22.48267 17.46760 5603 ft 24 kts 63°
2026-04-17 08:01 -22.48193 17.46918 5601 ft 23 kts 63°
2026-04-17 08:01 -22.48123 17.47071 5586 ft 22 kts 63°
2026-04-17 08:01 -22.48060 17.47208 5588 ft 20 kts 64°
2026-04-17 08:01 -22.47997 17.47346 5584 ft 21 kts 64°
2026-04-17 08:02 -22.47932 17.47488 5580 ft 21 kts 63°
2026-04-17 08:02 -22.47863 17.47636 5577 ft 23 kts 63°
2026-04-17 08:02 -22.47792 17.47790 5575 ft 23 kts 63°
2026-04-17 08:02 -22.47732 17.47902 5572 ft 9 kts 41°
2026-04-17 08:03 -22.47686 17.47908 5573 ft 6 kts 352°
2026-04-17 08:03 -22.47648 17.47899 5572 ft 4 kts 354°
2026-04-17 08:03 -22.47620 17.47911 5571 ft 5 kts 30°
2026-04-17 08:03 -22.47589 17.47954 5572 ft 10 kts 63°
2026-04-17 08:04 -22.47552 17.48036 5571 ft 14 kts 65°
2026-04-17 08:04 -22.47499 17.48156 5570 ft 21 kts 64°
2026-04-17 08:04 -22.47424 17.48320 5567 ft 27 kts 63°
2026-04-17 08:04 -22.47330 17.48521 5564 ft 33 kts 63°
2026-04-17 08:05 -22.47228 17.48743 5556 ft 19 kts 65°
2026-04-17 08:05 -22.47248 17.48851 5555 ft 17 kts 118°
2026-04-17 08:05 -22.47257 17.48937 5556 ft 9 kts 53°
2026-04-17 08:05 -22.47187 17.48944 5553 ft 11 kts 337°
2026-04-17 08:06 -22.47159 17.48919 5555 ft 3 kts 292°
2026-04-17 08:06 -22.47163 17.48880 5552 ft 8 kts 254°
2026-04-17 08:06 -22.47190 17.48822 5555 ft 12 kts 243°
2026-04-17 08:06 -22.47250 17.48693 5557 ft 40 kts 243°
2026-04-17 08:07 -22.47478 17.48197 5569 ft 106 kts 243°
2026-04-17 08:07 -22.47896 17.47296 5583 ft 160 kts 243°
2026-04-17 08:07 -22.48459 17.46090 5641 ft 192 kts 246°
2026-04-17 08:07 -22.49057 17.44811 6064 ft 198 kts 245°
2026-04-17 08:08 -22.49694 17.43499 6699 ft 196 kts 244°
2026-04-17 08:08 -22.50374 17.42216 7109 ft 196 kts 244°
2026-04-17 08:08 -22.50965 17.40905 7600 ft 193 kts 263°
2026-04-17 08:08 -22.50855 17.39440 7746 ft 202 kts 295°
2026-04-17 08:09 -22.50104 17.38199 8220 ft 194 kts 311°
2026-04-17 08:09 -22.49277 17.37120 8962 ft 184 kts 312°
2026-04-17 08:09 -22.48421 17.36040 9228 ft 196 kts 311°
2026-04-17 08:09 -22.47500 17.34876 9364 ft 211 kts 311°
2026-04-17 08:10 -22.46516 17.33632 9555 ft 222 kts 312°
2026-04-17 08:10 -22.45493 17.32346 9837 ft 230 kts 311°
2026-04-17 08:10 -22.44430 17.31006 10000 ft 240 kts 311°
2026-04-17 08:10 -22.43318 17.29601 10081 ft 253 kts 312°
2026-04-17 08:11 -22.42116 17.28118 10235 ft 272 kts 312°
2026-04-17 08:11 -22.40844 17.26504 10396 ft 294 kts 311°
2026-04-17 08:11 -22.39478 17.24744 10492 ft 316 kts 311°
2026-04-17 08:11 -22.38019 17.22861 10659 ft 336 kts 311°
2026-04-17 08:12 -22.36505 17.20909 11274 ft 340 kts 310°
2026-04-17 08:12 -22.34980 17.18949 11933 ft 343 kts 310°
2026-04-17 08:12 -22.33449 17.16984 12583 ft 347 kts 310°
2026-04-17 08:12 -22.31885 17.14980 13243 ft 351 kts 310°
2026-04-17 08:13 -22.30305 17.12958 13876 ft 354 kts 310°
2026-04-17 08:13 -22.28701 17.10906 14447 ft 358 kts 310°
2026-04-17 08:13 -22.27083 17.08839 15017 ft 362 kts 310°
2026-04-17 08:14 -22.23793 17.04637 16122 ft 370 kts 309°
2026-04-17 08:14 -22.22128 17.02513 16730 ft 372 kts 309°
2026-04-17 08:14 -22.20449 17.00371 17288 ft 376 kts 309°
2026-04-17 08:14 -22.18751 16.98205 17764 ft 381 kts 309°
2026-04-17 08:15 -22.17023 16.96002 18224 ft 386 kts 309°
2026-04-17 08:15 -22.15279 16.93779 18700 ft 390 kts 309°
2026-04-17 08:15 -22.13500 16.91563 19158 ft 393 kts 311°
2026-04-17 08:15 -22.11488 16.89558 19613 ft 398 kts 321°
2026-04-17 08:16 -22.09070 16.88051 20056 ft 405 kts 335°
2026-04-17 08:16 -22.06353 16.87121 20466 ft 413 kts 343°
2026-04-17 08:16 -22.03535 16.86473 20903 ft 418 kts 346°
2026-04-17 08:16 -22.00660 16.85902 21337 ft 421 kts 346°
2026-04-17 08:17 -21.97767 16.85324 21763 ft 424 kts 345°
2026-04-17 08:17 -21.94861 16.84716 22190 ft 428 kts 345°
2026-04-17 08:17 -21.91933 16.84074 22619 ft 431 kts 344°
2026-04-17 08:17 -21.88986 16.83408 23028 ft 434 kts 344°
2026-04-17 08:18 -21.86017 16.82725 23440 ft 438 kts 344°
2026-04-17 08:18 -21.83063 16.82040 23805 ft 441 kts 344°
2026-04-17 08:18 -21.80061 16.81343 24190 ft 443 kts 343°
2026-04-17 08:18 -21.77043 16.80643 24570 ft 444 kts 343°
2026-04-17 08:19 -21.74012 16.79940 24965 ft 446 kts 343°
2026-04-17 08:19 -21.70958 16.79233 25339 ft 448 kts 343°
2026-04-17 08:19 -21.67903 16.78525 25717 ft 450 kts 342°
2026-04-17 08:19 -21.64840 16.77816 26094 ft 452 kts 342°
2026-04-17 08:20 -21.61751 16.77102 26456 ft 454 kts 342°
2026-04-17 08:20 -21.58658 16.76386 26785 ft 456 kts 342°
2026-04-17 08:20 -21.55554 16.75670 27180 ft 456 kts 342°
2026-04-17 08:20 -21.52447 16.74952 27523 ft 458 kts 342°
2026-04-17 08:21 -21.49318 16.74230 27856 ft 460 kts 341°
2026-04-17 08:21 -21.46180 16.73505 28186 ft 462 kts 341°
2026-04-17 08:21 -21.43031 16.72779 28508 ft 464 kts 341°
2026-04-17 08:21 -21.39905 16.72058 28821 ft 466 kts 341°
2026-04-17 08:22 -21.36723 16.71324 29145 ft 468 kts 341°
2026-04-17 08:22 -21.33546 16.70592 29448 ft 470 kts 341°
2026-04-17 08:22 -21.30335 16.69853 29783 ft 471 kts 341°
2026-04-17 08:22 -21.27121 16.69113 30073 ft 474 kts 341°
2026-04-17 08:23 -21.23888 16.68371 30362 ft 475 kts 341°
2026-04-17 08:23 -21.20651 16.67630 30678 ft 476 kts 341°
2026-04-17 08:23 -21.17415 16.66889 31041 ft 475 kts 341°
2026-04-17 08:23 -21.14192 16.66152 31436 ft 472 kts 341°
2026-04-17 08:24 -21.10988 16.65420 31835 ft 469 kts 341°
2026-04-17 08:24 -21.07794 16.64689 32235 ft 466 kts 341°
2026-04-17 08:24 -21.04632 16.63964 32611 ft 464 kts 341°
2026-04-17 08:24 -21.01480 16.63242 32981 ft 461 kts 341°
2026-04-17 08:25 -20.98363 16.62530 33363 ft 458 kts 340°
2026-04-17 08:25 -20.95258 16.61821 33722 ft 455 kts 341°
2026-04-17 08:25 -20.92205 16.61123 33935 ft 455 kts 341°